| time (UTC) | temp F | wind direction | speed MPH | gust MPH | rain 1hr in | rain 24hr in | rain mn in | humidity % | barometer mb |
| 20260509023055 | 76 | 236 | 0.0 | 0.0 | 0.00 | 0.00 | 0.00 | 16 | 1004.2 |
| 20260509021545 | 79 | 235 | 0.0 | 0.0 | 0.00 | 0.00 | 0.00 | 16 | 1003.9 |
| 20260509020048 | 81 | 236 | 0.0 | 0.0 | 0.00 | 0.00 | 0.00 | 15 | 1003.7 |
| 20260509014543 | 84 | 236 | 0.0 | 0.0 | 0.00 | 0.00 | 0.00 | 14 | 1003.5 |
| 20260509013105 | 87 | 203 | 0.0 | 0.0 | 0.00 | 0.00 | 0.00 | 14 | 1003.4 |
| 20260509011542 | 90 | 165 | 0.0 | 0.0 | 0.00 | 0.00 | 0.00 | 12 | 1003.3 |
| 20260509010042 | 93 | 143 | 0.0 | 0.0 | 0.00 | 0.00 | 0.00 | 11 | 1003.4 |
| 20260509004540 | 92 | 79 | 0.0 | 0.0 | 0.00 | 0.00 | 0.00 | 12 | 1003.4 |
| 20260509003039 | 92 | 51 | 0.0 | 0.0 | 0.00 | 0.00 | 0.00 | 12 | 1003.5 |
| 20260509001536 | 91 | 41 | 0.0 | 0.0 | 0.00 | 0.00 | 0.00 | 13 | 1003.6 |
| 20260509000034 | 91 | 46 | 0.0 | 0.0 | 0.00 | 0.00 | 0.00 | 13 | 1003.8 |
| 20260508234532 | 89 | 54 | 0.0 | 0.0 | 0.00 | 0.00 | 0.00 | 14 | 1003.9 |
| 20260508233033 | 90 | 71 | 0.0 | 0.0 | 0.00 | 0.00 | 0.00 | 13 | 1004.0 |
| 20260508231530 | 89 | 127 | 0.0 | 0.0 | 0.00 | 0.00 | 0.00 | 13 | 1004.0 |
| 20260508230048 | 89 | 355 | 0.0 | 0.0 | 0.00 | 0.00 | 0.00 | 13 | 1003.9 |
| 20260508224553 | 89 | 39 | 0.0 | 1.0 | 0.00 | 0.00 | 0.00 | 14 | 1003.9 |
| 20260508223032 | 88 | 121 | 0.0 | 2.0 | 0.00 | 0.00 | 0.00 | 13 | 1004.0 |
| 20260508221524 | 88 | 74 | 0.0 | 1.0 | 0.00 | 0.00 | 0.00 | 13 | 1004.3 |
| 20260508220022 | 88 | 46 | 0.0 | 4.0 | 0.00 | 0.00 | 0.00 | 13 | 1004.4 |
| 20260508214520 | 87 | 30 | 0.0 | 3.0 | 0.00 | 0.00 | 0.00 | 15 | 1004.6 |
| 20260508213018 | 87 | 348 | 0.0 | 6.0 | 0.00 | 0.00 | 0.00 | 13 | 1005.0 |
| 20260508211516 | 87 | 58 | 1.0 | 9.0 | 0.00 | 0.00 | 0.00 | 14 | 1005.2 |
| 20260508210014 | 87 | 359 | 0.0 | 7.0 | 0.00 | 0.00 | 0.00 | 14 | 1005.4 |
| 20260508204517 | 87 | 64 | 0.0 | 5.0 | 0.00 | 0.00 | 0.00 | 14 | 1006.0 |
| 20260508203008 | 86 | 5 | 0.0 | 4.0 | 0.00 | 0.00 | 0.00 | 14 | 1006.1 |
| 20260508201506 | 87 | 39 | 0.0 | 5.0 | 0.00 | 0.00 | 0.00 | 14 | 1006.4 |
| 20260508200004 | 86 | 318 | 0.0 | 12.0 | 0.00 | 0.00 | 0.00 | 15 | 1006.5 |
| 20260508194502 | 85 | 12 | 0.0 | 3.0 | 0.00 | 0.00 | 0.00 | 16 | 1006.7 |
| 20260508193135 | 85 | 348 | 0.0 | 10.0 | 0.00 | 0.00 | 0.00 | 15 | 1006.8 |
| 20260508191557 | 84 | 27 | 1.0 | 12.0 | 0.00 | 0.00 | 0.00 | 15 | 1007.0 |
| 20260508190058 | 84 | 41 | 1.0 | 9.0 | 0.00 | 0.00 | 0.00 | 15 | 1007.2 |
| 20260508184614 | 84 | 54 | 0.0 | 7.0 | 0.00 | 0.00 | 0.00 | 15 | 1007.6 |
| 20260508183151 | 84 | 34 | 2.0 | 12.0 | 0.00 | 0.00 | 0.00 | 15 | 1007.7 |
| 20260508181548 | 83 | 30 | 0.0 | 14.0 | 0.00 | 0.00 | 0.00 | 17 | 1008.1 |
| 20260508180053 | 83 | 36 | 1.0 | 7.0 | 0.00 | 0.00 | 0.00 | 16 | 1008.4 |
| 20260508174556 | 81 | 347 | 1.0 | 9.0 | 0.00 | 0.00 | 0.00 | 16 | 1008.7 |
| 20260508173038 | 80 | 34 | 0.0 | 11.0 | 0.00 | 0.00 | 0.00 | 16 | 1008.8 |
| 20260508171548 | 79 | 14 | 1.0 | 10.0 | 0.00 | 0.00 | 0.00 | 15 | 1009.0 |
| 20260508170038 | 79 | 360 | 0.0 | 13.0 | 0.00 | 0.00 | 0.00 | 15 | 1009.1 |
| 20260508164536 | 77 | 3 | 2.0 | 13.0 | 0.00 | 0.00 | 0.00 | 15 | 1009.4 |
| 20260508163033 | 77 | 325 | 3.0 | 12.0 | 0.00 | 0.00 | 0.00 | 15 | 1009.6 |
| 20260508161538 | 76 | 343 | 2.0 | 14.0 | 0.00 | 0.00 | 0.00 | 16 | 1009.6 |
| 20260508160031 | 75 | 347 | 3.0 | 13.0 | 0.00 | 0.00 | 0.00 | 16 | 1009.8 |
| 20260508154523 | 74 | 28 | 0.0 | 5.0 | 0.00 | 0.00 | 0.00 | 17 | 1009.8 |
| 20260508153028 | 73 | 346 | 1.0 | 10.0 | 0.00 | 0.00 | 0.00 | 18 | 1009.7 |
| 20260508151531 | 71 | 12 | 0.0 | 6.0 | 0.00 | 0.00 | 0.00 | 19 | 1009.9 |
| 20260508150113 | 71 | 18 | 0.0 | 4.0 | 0.00 | 0.00 | 0.00 | 19 | 1010.0 |
| 20260508144511 | 69 | 27 | 0.0 | 9.0 | 0.00 | 0.00 | 0.00 | 19 | 1009.9 |
| 20260508143006 | 66 | 46 | 0.0 | 0.0 | 0.00 | 0.00 | 0.00 | 31 | 1010.1 |
| 20260508141507 | 65 | 21 | 0.0 | 0.0 | 0.00 | 0.00 | 0.00 | 36 | 1010.2 |
| 20260508140112 | 61 | 90 | 0.0 | 0.0 | 0.00 | 0.00 | 0.00 | 38 | 1010.2 |
| 20260508134616 | 61 | 101 | 0.0 | 0.0 | 0.00 | 0.00 | 0.00 | 35 | 1010.2 |
| 20260508133110 | 59 | 141 | 0.0 | 0.0 | 0.00 | 0.00 | 0.00 | 36 | 1010.1 |
| 20260508131552 | 56 | 141 | 0.0 | 0.0 | 0.00 | 0.00 | 0.00 | 41 | 1009.8 |
| 20260508130050 | 54 | 141 | 0.0 | 0.0 | 0.00 | 0.00 | 0.00 | 49 | 1009.7 |
| 20260508124549 | 50 | 141 | 0.0 | 0.0 | 0.00 | 0.00 | 0.00 | 44 | 1009.7 |
| 20260508123048 | 47 | 141 | 0.0 | 0.0 | 0.00 | 0.00 | 0.00 | 48 | 1009.3 |
| 20260508121547 | 45 | 141 | 0.0 | 0.0 | 0.00 | 0.00 | 0.00 | 46 | 1009.1 |
| 20260508120050 | 45 | 141 | 0.0 | 0.0 | 0.00 | 0.00 | 0.00 | 45 | 1008.8 |
| 20260508114543 | 44 | 141 | 0.0 | 0.0 | 0.00 | 0.00 | 0.00 | 46 | 1008.8 |
| 20260508113053 | 44 | 141 | 0.0 | 0.0 | 0.00 | 0.00 | 0.00 | 50 | 1008.8 |
| 20260508111539 | 45 | 141 | 0.0 | 0.0 | 0.00 | 0.00 | 0.00 | 50 | 1008.6 |
| 20260508110038 | 45 | 141 | 0.0 | 0.0 | 0.00 | 0.00 | 0.00 | 44 | 1008.7 |
| 20260508104536 | 46 | 141 | 0.0 | 0.0 | 0.00 | 0.00 | 0.00 | 45 | 1008.5 |
| 20260508103036 | 46 | 141 | 0.0 | 0.0 | 0.00 | 0.00 | 0.00 | 48 | 1008.4 |
| 20260508101539 | 48 | 141 | 0.0 | 0.0 | 0.00 | 0.00 | 0.00 | 45 | 1008.0 |
| 20260508100031 | 51 | 141 | 0.0 | 0.0 | 0.00 | 0.00 | 0.00 | 37 | 1008.0 |
| 20260508094530 | 54 | 141 | 0.0 | 0.0 | 0.00 | 0.00 | 0.00 | 42 | 1007.9 |
| 20260508093031 | 53 | 141 | 0.0 | 0.0 | 0.00 | 0.00 | 0.00 | 47 | 1008.0 |
| 20260508091543 | 52 | 143 | 0.0 | 0.0 | 0.00 | 0.00 | 0.00 | 41 | 1008.1 |
| 20260508090025 | 48 | 143 | 0.0 | 0.0 | 0.00 | 0.00 | 0.00 | 44 | 1008.2 |
| 20260508084523 | 50 | 144 | 0.0 | 0.0 | 0.00 | 0.00 | 0.00 | 40 | 1008.0 |
| 20260508083031 | 51 | 144 | 0.0 | 0.0 | 0.00 | 0.00 | 0.00 | 34 | 1008.1 |
| 20260508081520 | 51 | 144 | 0.0 | 0.0 | 0.00 | 0.00 | 0.00 | 36 | 1008.2 |
| 20260508080020 | 50 | 144 | 0.0 | 0.0 | 0.00 | 0.00 | 0.00 | 39 | 1008.2 |
| 20260508074515 | 53 | 144 | 0.0 | 0.0 | 0.00 | 0.00 | 0.00 | 34 | 1008.4 |
| 20260508073012 | 54 | 142 | 0.0 | 0.0 | 0.00 | 0.00 | 0.00 | 31 | 1008.5 |
| 20260508071510 | 54 | 142 | 0.0 | 0.0 | 0.00 | 0.00 | 0.00 | 32 | 1008.7 |
| 20260508070011 | 54 | 142 | 0.0 | 0.0 | 0.00 | 0.00 | 0.00 | 33 | 1008.7 |
| 20260508064515 | 54 | 141 | 0.0 | 0.0 | 0.00 | 0.00 | 0.00 | 36 | 1008.7 |
| 20260508063007 | 55 | 141 | 0.0 | 0.0 | 0.00 | 0.00 | 0.00 | 39 | 1008.8 |
| 20260508061504 | 59 | 141 | 0.0 | 0.0 | 0.00 | 0.00 | 0.00 | 27 | 1008.7 |
| 20260508060100 | 59 | 141 | 0.0 | 0.0 | 0.00 | 0.00 | 0.00 | 27 | 1008.7 |
| 20260508054600 | 59 | 141 | 0.0 | 0.0 | 0.00 | 0.00 | 0.00 | 28 | 1008.7 |
| 20260508053103 | 60 | 141 | 0.0 | 0.0 | 0.00 | 0.00 | 0.00 | 26 | 1008.7 |
| 20260508051619 | 61 | 141 | 0.0 | 0.0 | 0.00 | 0.00 | 0.00 | 27 | 1008.7 |
| 20260508050059 | 62 | 141 | 0.0 | 0.0 | 0.00 | 0.00 | 0.00 | 28 | 1008.6 |
| 20260508044557 | 63 | 141 | 0.0 | 0.0 | 0.00 | 0.00 | 0.00 | 27 | 1008.6 |
| 20260508043057 | 65 | 141 | 0.0 | 0.0 | 0.00 | 0.00 | 0.00 | 25 | 1008.4 |
| 20260508041555 | 66 | 143 | 0.0 | 0.0 | 0.00 | 0.00 | 0.00 | 24 | 1008.3 |
| 20260508040055 | 66 | 133 | 0.0 | 0.0 | 0.00 | 0.00 | 0.00 | 24 | 1008.2 |
| 20260508034555 | 66 | 132 | 0.0 | 0.0 | 0.00 | 0.00 | 0.00 | 24 | 1007.8 |
| 20260508033055 | 66 | 140 | 0.0 | 0.0 | 0.00 | 0.00 | 0.00 | 24 | 1007.5 |
| 20260508031553 | 67 | 140 | 0.0 | 0.0 | 0.00 | 0.00 | 0.00 | 24 | 1007.3 |
| 20260508030054 | 68 | 140 | 0.0 | 0.0 | 0.00 | 0.00 | 0.00 | 23 | 1006.9 |
| 20260508024553 | 69 | 146 | 0.0 | 0.0 | 0.00 | 0.00 | 0.00 | 23 | 1006.8 |